Regional Weather Roundup
Issued by NWS

Home | Current Version | Previous Version | Text Only | Print | Product List | Glossary On
Versions: 1 2 3 4 5 6 7 8 9 10 11 12 13 14 15 16 17 18 19 20 21 22 23 24 25 26 27 28 29 30 31 32 33 34 35 36 37 38 39 40 41 42 43 44 45 46 47 48 49 50
000
ASUS43 KDMX 221806
RWRIA

WEATHER ROUNDUP FOR IOWA
NATIONAL WEATHER SERVICE DES MOINES IA
100 PM CDT FRI SEP 22 2017

NOTE: "FAIR" INDICATES FEW OR NO CLOUDS BELOW 12,000 FEET WITH NO
SIGNIFICANT WEATHER AND/OR OBSTRUCTIONS TO VISIBILITY.

* - THESE STATIONS ARE NOT NWS STATIONS...THUS NOT UNDER NWS
QUALITY CONTROL.  THEY ALSO DO NOT REPORT WEATHER SUCH
AS PRECIPITATION OR FOG.

IAZ001>003-012>014-020>022-031>034-043>046-221900-
   NORTHWEST IOWA

CITY           SKY/WX    TMP DP  RH WIND       PRES   REMARKS
CARROLL *      SUNNY     91  72  52 S21G29    29.86F HX  98
CHEROKEE *     SUNNY     87  72  60 S18G26    29.81F HX  93
DENISON *      SUNNY     90  72  55 S16G25    29.85F HX  96
LE MARS *      SUNNY     88  70  55 S25       29.76F HX  92
ORANGE CITY *  SUNNY     88  72  58 S23       29.78S HX  94
SHELDON *      SUNNY     88  70  55 S16G25    29.77F HX  92
SIOUX CITY     SUNNY     88  71  57 S22G33    29.77F HX  94
6HR MIN TEMP:  74; 6HR MAX TEMP:  88;

SPENCER        SUNNY     89  69  51 S20G29    29.81F HX  93
6HR MIN TEMP:  74; 6HR MAX TEMP:  89;

STORM LAKE *   SUNNY     90  70  51 S22       29.83F HX  95
$$

IAZ055>058-069>071-079>083-090>094-221900-
   SOUTHWEST IOWA

CITY           SKY/WX    TMP DP  RH WIND       PRES   REMARKS
ATLANTIC *     SUNNY     88  72  58 S20G28    29.88F HX  94
AUDUBON *      SUNNY     88  73  62 S17       29.90S HX  96
CLARINDA *     SUNNY     90  72  55 S17G23    29.92F HX  96
COUNCIL BLFS * SUNNY     88  72  58 S17G30    29.86S HX  94
CRESTON *      SUNNY     88  72  58 S17G25    29.95F HX  94
HARLAN  *      SUNNY     90  72  55 S15G30    29.90S HX  96
LAMONI         SUNNY     88  72  58 S15       29.96F HX  94
6HR MIN TEMP:  71; 6HR MAX TEMP:  88;

RED OAK *      SUNNY     90  72  55 S17G24    29.88F HX  96
SHENANDOAH *   SUNNY     90  72  55 S16G28    29.88F HX  96
$$

IAZ047>049-059>061-072>074-084-221900-
   CENTRAL IOWA

CITY           SKY/WX    TMP DP  RH WIND       PRES   REMARKS
AMES           SUNNY     88  72  58 S21G26    29.92F HX  94
6HR MIN TEMP:  71; 6HR MAX TEMP:  88;

ANKENY *       SUNNY     88  72  58 S14G22    29.93F HX  94
BOONE *        SUNNY     90  70  51 S17G26    29.91F HX  95
CHARITON *     MOSUNNY   86  72  62 S15G24    29.97S HX  92
DES MOINES     MOSUNNY   90  70  51 S20G25    29.92F HX  95
6HR MIN TEMP:  73; 6HR MAX TEMP:  90;

GRINNELL*      SUNNY     88  68  52 S15G23    29.98F HX  91
KNOXVILLE *    MOSUNNY   88  70  55 S18G24    29.95F HX  92
MARSHALLTOWN   SUNNY     89  71  55 S16G25    29.94F HX  95
6HR MIN TEMP:  72; 6HR MAX TEMP:  89;

NEWTON *       SUNNY     90  70  51 S17G25    29.96S HX  95
PELLA *        SUNNY     89  68  49 S17G24    29.98S HX  93
PERRY *          N/A     91  69  48 S14G24    29.90F HX  95
$$

IAZ004>006-015-016-023>025-035-036-221900-
   NORTH CENTRAL IOWA

CITY           SKY/WX    TMP DP  RH WIND       PRES   REMARKS
ALGONA *       SUNNY     90  72  55 S18G26    29.85F HX  96
CLARION *      SUNNY     90  72  55 S20G28    29.90S HX  96
ESTHERVILLE    SUNNY     87  71  58 S20G31    29.82F HX  93
6HR MIN TEMP:  71; 6HR MAX TEMP:  87;

FORT DODGE *   SUNNY     89  71  55 S15G22    29.88F HX  95
MASON CITY     SUNNY     89  69  51 S18G29    29.91F HX  93
6HR MIN TEMP:  70; 6HR MAX TEMP:  89;

FOREST CITY *    N/A     86  70  58 S18G24    29.89S HX  90
WEBSTER CITY * SUNNY     90  70  51 S15G26    29.88F HX  95
IOWA FALLS *     N/A     89  71  55 S16G22    29.94S HX  95
$$

IAZ007>011-017>019-026>030-037>042-050>054-066-221900-
   NORTHEAST IOWA

CITY           SKY/WX    TMP DP  RH WIND       PRES   REMARKS
CEDAR RAPIDS   SUNNY     90  67  46 S16G25    29.99S HX  93
6HR MIN TEMP:  71; 6HR MAX TEMP:  91;

CHARLES CITY * SUNNY     90  68  48 S15G23    29.93F HX  93
CLINTON *      SUNNY    N/A N/A N/A S14       30.03F
DECORAH *      SUNNY     88  68  51 S13G31    29.96S HX  91
DUBUQUE        SUNNY     87  69  54 S17       30.02F HX  91
6HR MIN TEMP:  69; 6HR MAX TEMP:  87;

MONTICELLO *   MOSUNNY   91  68  46 S14G22    30.00S HX  95
OELWEIN *      SUNNY     91  68  46 S22G32    29.98S HX  95
WATERLOO       SUNNY     90  66  45 S22       29.94F HX  92
6HR MIN TEMP:  72; 6HR MAX TEMP:  91;

$$

IAZ064-065-067-068-078-221900-
   EAST CENTRAL IOWA

CITY           SKY/WX    TMP DP  RH WIND       PRES   REMARKS
DAVENPORT      SUNNY     88  68  51 S14G21    30.04F HX  91
6HR MIN TEMP:  71; 6HR MAX TEMP:  88;

IOWA CITY      MOSUNNY   91  69  48 S17       30.01S HX  96
6HR MIN TEMP:  69; 6HR MAX TEMP:  91;

MUSCATINE *    MOSUNNY   90  68  48 S15       30.00F HX  93
QUAD CITIES    SUNNY     91  68  46 S12       30.02S HX  95
6HR MIN TEMP:  72; 6HR MAX TEMP:  91;

$$

IAZ062-063-075>077-085>089-095>099-221900-
   SOUTHEAST IOWA

CITY           SKY/WX    TMP DP  RH WIND       PRES   REMARKS
BURLINGTON     SUNNY     91  69  48 S15       30.02F HX  96
6HR MIN TEMP:  69; 6HR MAX TEMP:  91;

FAIRFIELD *    MOSUNNY   90  68  48 S20G26    30.00S HX  93
FORT MADISON * SUNNY     91  70  49 S12G18    30.03S HX  97
KEOKUK *       MOSUNNY   90  70  51 S9G22     30.01F HX  95
OSKALOOSA *      N/A     89  68  49 S17G24    29.99S HX  93
OTTUMWA        SUNNY     89  69  51 S17G24    29.99F HX  93
6HR MIN TEMP:  73; 6HR MAX TEMP:  89;

WASHINGTON *   MOSUNNY   90  70  51 S14G20    30.01F HX  95
$$

ABBREVIATIONS USED IN REMARKS
   TC - TEMPERATURES IN CELSIUS
  WCI - WIND CHILL INDEX
   HX - HEAT INDEX
  VSB - VISIBILITY
$$





USA.gov is the U.S. government's official web portal to all federal, state and local government web resources and services.